Weather History for Branson, MO

Change the Weather History Date:

Sunday, December 2, 2012

  Actual Average (KHRO) Record (KHRO)
Temperature  
Mean Temperature 68 °F 42 °F  
Max Temperature 73 °F 51 °F 77 °F (2012)
Min Temperature 62 °F 32 °F 9 °F (1985)
Degree Days  
Heating Degree Days 0 23  
Month to date heating degree days 46  
Since 1 July heating degree days 810  
Cooling Degree Days 2 0  
Month to date cooling degree days 0  
Year to date cooling degree days 1416  
Growing Degree Days 18 (Base 50)    
Moisture  
Dew Point 57 °F    
Average Humidity 73    
Maximum Humidity 83    
Minimum Humidity 50    
Precipitation  
Precipitation 0.00 in 0.13 in 5.37 in (1982)
Month to date precipitation 0.25  
Year to date precipitation 41.19  
Snow  
Snow 0.00 in 0.00 in 2.70 in (1971)
Month to date snowfall 0.0  
Since 1 July snowfall 0.5  
Snow Depth -    
Sea Level Pressure  
Sea Level Pressure 30.02 in    
Wind  
Wind Speed 7 mph (South)    
Max Wind Speed 15 mph    
Max Gust Speed 21 mph    
Visibility 10 miles    
Events      
T = Trace of Precipitation, MM = Missing Value Source: NWS Daily Summary

Daily Weather History Graph

Daily Weather History Graph

Search for Another Location

Airport:

Trip Planner

Search our weather history database for the weather conditions in past years. The results will help you decide how hot, cold, wet, or windy it might be!

Date:

Astronomy

Dec. 02, 2012 Rise Set
Actual Time 7:07 AM CST 4:57 PM CST
Civil Twilight 6:39 AM CST 5:25 PM CST
Nautical Twilight 6:07 AM CST 5:57 PM CST
Astronomical Twilight 5:35 AM CST 6:28 PM CST
Moon 8:42 PM CST (12/2) 9:59 AM CST (12/2)
Length of Visible Light 10h 46m
Length of Day
9h 49m
Waning Gibbous, 85% of the Moon is Illuminated
Dec 2
Waning Gibbous
Dec 6
Last Quarter
Dec 13
New
Dec 19
First Quarter
Dec 28
Full

Hourly Weather History & Observations

Time (CST) Temp. Dew Point Humidity Pressure Visibility Wind Dir Wind Speed Gust Speed Precip Events Conditions
12:15 AM 66.2 °F 57.2 °F 73% 29.99 in 10.0 mi South 6.9 mph - N/A   Partly Cloudy
12:35 AM 64.4 °F 57.2 °F 77% 29.99 in 10.0 mi South 5.8 mph - N/A   Partly Cloudy
12:55 AM 64.4 °F 57.2 °F 77% 29.99 in 10.0 mi South 6.9 mph - N/A   Partly Cloudy
1:15 AM 64.4 °F 57.2 °F 77% 29.99 in 10.0 mi South 4.6 mph - N/A   Partly Cloudy
1:35 AM 64.4 °F 57.2 °F 77% 29.99 in 10.0 mi South 4.6 mph - N/A   Clear
1:55 AM 64.4 °F 57.2 °F 77% 29.99 in 10.0 mi SSW 8.1 mph - N/A   Clear
2:15 AM 66.2 °F 57.2 °F 73% 30.00 in 10.0 mi South 8.1 mph - N/A   Clear
2:35 AM 66.2 °F 57.2 °F 73% 29.99 in 10.0 mi SSW 9.2 mph - N/A   Clear
2:55 AM 66.2 °F 57.2 °F 73% 29.99 in 10.0 mi South 8.1 mph - N/A   Clear
3:15 AM 66.2 °F 57.2 °F 73% 29.99 in 10.0 mi SSW 9.2 mph - N/A   Clear
3:35 AM 66.2 °F 57.2 °F 73% 29.99 in 10.0 mi SSW 6.9 mph - N/A   Clear
3:55 AM 66.2 °F 59.0 °F 78% 30.00 in 10.0 mi SSW 6.9 mph - N/A   Clear
4:15 AM 66.2 °F 59.0 °F 78% 30.00 in 10.0 mi SSW 6.9 mph - N/A   Clear
4:35 AM 64.4 °F 59.0 °F 83% 30.00 in 10.0 mi SW 8.1 mph - N/A   Clear
4:55 AM 66.2 °F 59.0 °F 78% 30.00 in 10.0 mi SW 8.1 mph - N/A   Clear
5:15 AM 64.4 °F 59.0 °F 83% 30.01 in 10.0 mi SW 8.1 mph - N/A   Clear
5:35 AM 64.4 °F 59.0 °F 83% 30.01 in 10.0 mi SSW 9.2 mph - N/A   Partly Cloudy
6:45 AM 64.4 °F 59.0 °F 83% 30.04 in 10.0 mi SSW 8.1 mph - N/A   Partly Cloudy
7:45 AM 64.4 °F 59.0 °F 83% 30.06 in 10.0 mi SW 9.2 mph - N/A   Mostly Cloudy
8:45 AM 66.2 °F 59.0 °F 78% 30.08 in 10.0 mi South 5.8 mph - N/A   Mostly Cloudy
9:50 AM 69.8 °F 59.0 °F 68% 30.08 in 10.0 mi SW 8.1 mph 17.3 mph N/A   Mostly Cloudy
10:51 AM 71.6 °F 57.2 °F 60% 30.08 in 10.0 mi SSW 11.5 mph 18.4 mph N/A   Mostly Cloudy
11:46 AM 73.4 °F 55.4 °F 53% 30.06 in 10.0 mi SSW 12.7 mph 20.7 mph N/A   Mostly Cloudy
12:45 PM 73.4 °F 55.4 °F 53% 30.03 in 10.0 mi South 8.1 mph - N/A   Mostly Cloudy
1:45 PM 73.4 °F 53.6 °F 50% 30.02 in 10.0 mi SSW 13.8 mph 19.6 mph N/A   Mostly Cloudy
2:55 PM 73.4 °F 53.6 °F 50% 30.00 in 10.0 mi SSW 15.0 mph 19.6 mph N/A   Mostly Cloudy
3:46 PM 73.4 °F 55.4 °F 53% 30.01 in 10.0 mi SSW 12.7 mph 18.4 mph N/A   Mostly Cloudy
4:45 PM 71.6 °F 55.4 °F 57% 30.01 in 10.0 mi South 6.9 mph - N/A   Mostly Cloudy
5:45 PM 68.0 °F 55.4 °F 64% 30.02 in 10.0 mi South 8.1 mph - N/A   Mostly Cloudy
6:50 PM 66.2 °F 55.4 °F 68% 30.03 in 10.0 mi South 5.8 mph - N/A   Mostly Cloudy
7:45 PM 66.2 °F 55.4 °F 68% 30.02 in 10.0 mi South 5.8 mph - N/A   Clear
8:15 PM 64.4 °F 57.2 °F 77% 30.02 in 10.0 mi SSE 6.9 mph - N/A   Clear
8:35 PM 64.4 °F 57.2 °F 77% 30.02 in 10.0 mi South 5.8 mph - N/A   Clear
8:45 PM 64.4 °F 57.2 °F 77% 30.02 in 10.0 mi SSE 5.8 mph - N/A   Clear
8:55 PM 64.4 °F 57.2 °F 77% 30.03 in 10.0 mi SSE 6.9 mph - N/A   Clear
9:15 PM 62.6 °F 57.2 °F 82% 30.02 in 10.0 mi SSE 4.6 mph - N/A   Clear
9:35 PM 62.6 °F 57.2 °F 82% 30.03 in 10.0 mi SSE 5.8 mph - N/A   Clear
9:55 PM 62.6 °F 57.2 °F 82% 30.02 in 10.0 mi SSE 6.9 mph - N/A   Clear
10:15 PM 62.6 °F 57.2 °F 82% 30.02 in 10.0 mi SSE 5.8 mph - N/A   Clear
10:55 PM 62.6 °F 57.2 °F 82% 30.02 in 10.0 mi SSE 6.9 mph - N/A   Clear
11:15 PM 62.6 °F 57.2 °F 82% 30.02 in 10.0 mi South 6.9 mph - N/A   Partly Cloudy
11:35 PM 64.4 °F 57.2 °F 77% 30.02 in 10.0 mi South 8.1 mph - N/A   Clear
11:55 PM 64.4 °F 57.2 °F 77% 30.01 in 10.0 mi South 6.9 mph - N/A   Clear